Theta_e
322 322 321 324 331 335 342 341 340 339 342 345 335 341 349 349 349 362 356 352 348 352 356 350 343 344 345 345 347 347 347 346 336 333 335 335 333 337 337 337 344 346 343 340 338 335 326 324 324
323 321 322 328 333 340 342 341 340 339 337 334 335 337 352 352 355 358 356 352 351 354 356 353 342 343 345 346 348 347 347 344 335 335 337 336 334 337 338 339 343 345 344 335 329 328 325 327 327
320 320 326 331 336 339 341 339 340 338 335 334 334 345 353 354 357 355 353 352 352 354 354 353 340 342 343 346 348 347 347 343 338 339 340 337 335 337 338 340 341 341 333 327 323 324 327 328 329
321 323 324 330 337 337 337 337 335 335 335 334 333 338 352 354 354 352 352 351 352 352 352 352 337 339 342 343 346 346 346 344 343 344 342 338 336 337 338 337 334 330 331 325 322 324 328 331 331
321 325 327 329 334 336 332 334 334 334 334 334 335 338 353 356 355 352 352 350 349 350 351 350 336 337 339 340 342 344 344 344 344 344 341 338 335 336 336 334 331 331 332 325 322 324 329 332 331
323 325 329 331 332 334 332 332 332 333 333 333 342 340 353 357 357 352 352 349 347 350 352 351 336 335 337 338 339 340 342 342 343 341 338 335 336 336 335 334 332 334 330 327 325 326 329 333 333
319 324 326 330 331 332 332 328 330 332 331 340 345 349 355 357 359 353 353 349 348 351 351 350 345 339 336 337 336 335 335 334 334 333 333 334 335 335 335 333 334 333 329 327 326 326 328 330 332
318 321 323 325 329 330 330 326 330 329 331 337 341 349 353 358 360 355 354 351 349 350 350 349 345 343 344 344 337 335 334 333 331 331 332 334 336 335 333 334 334 333 329 325 323 323 324 326 328
317 320 322 323 326 328 328 328 331 327 331 335 336 335 348 357 358 356 355 352 348 348 349 347 345 343 343 345 344 337 335 334 332 333 333 336 339 340 343 340 343 335 332 329 325 321 320 320 321
316 317 320 321 323 325 327 327 333 330 331 336 339 330 353 356 355 354 352 350 347 348 348 347 346 344 344 344 347 344 344 343 342 341 343 340 340 343 342 343 339 335 332 331 329 326 323 321 328
316 316 317 318 322 324 325 326 330 333 333 332 332 328 331 352 354 353 349 347 347 347 348 348 349 348 346 345 347 345 345 345 345 345 346 342 341 342 341 340 341 341 339 338 339 340 338 334 333
315 315 316 317 321 322 323 326 329 333 333 331 332 329 328 330 333 351 351 349 348 347 348 348 351 350 348 345 346 347 347 347 348 348 350 348 348 347 345 343 343 344 342 342 341 339 339 339 338
316 315 315 316 318 320 323 325 327 330 333 329 331 330 330 329 330 330 333 352 350 350 349 350 350 352 350 347 347 347 348 348 349 349 350 349 349 348 349 348 348 347 347 347 348 347 348 347 347
317 316 316 316 316 317 322 326 327 328 331 332 333 332 333 332 331 330 326 336 353 352 351 350 352 353 352 351 350 349 349 348 350 349 350 351 350 349 349 349 349 348 347 347 347 347 347 347 347
315 315 316 317 317 317 318 323 327 328 329 332 334 333 332 332 329 330 330 326 337 352 353 352 352 353 354 354 353 352 351 350 350 350 351 352 352 352 352 349 349 348 348 349 349 349 349 348 347
313 314 315 315 315 317 319 323 325 327 329 332 333 332 332 332 328 329 331 330 324 335 352 355 353 352 355 354 354 354 353 353 351 351 351 353 353 352 351 349 349 350 351 351 351 351 350 350 349
315 314 315 314 315 315 318 319 320 325 328 330 332 333 332 332 330 330 330 330 326 324 343 351 355 353 354 355 354 354 354 354 353 352 352 352 352 351 350 350 352 354 353 353 353 352 351 350 349
316 315 314 315 315 315 317 319 318 322 325 328 330 331 332 333 333 331 328 327 323 324 329 342 350 354 356 356 356 355 354 354 354 353 352 352 351 351 353 353 354 355 353 349 348 348 347 346 346
317 317 316 316 316 316 316 317 319 320 323 325 330 332 331 335 334 330 328 323 322 323 327 334 341 349 355 354 353 353 353 353 354 353 352 352 353 354 353 353 351 351 345 342 343 343 340 339 338
317 318 318 318 317 318 316 318 318 320 321 323 327 330 331 334 334 330 325 325 322 322 318 325 336 347 351 349 350 349 351 352 353 351 351 353 352 352 353 350 341 338 335 340 339 338 335 331 331
317 319 318 318 319 316 317 319 319 320 322 324 325 325 330 332 333 327 325 323 323 323 322 329 345 350 350 350 352 350 351 351 352 352 354 354 354 351 342 337 333 333 333 327 334 332 330 327 326
319 318 318 318 319 320 320 322 321 322 322 323 323 323 326 330 327 324 323 322 323 326 330 340 347 349 350 348 344 346 346 346 346 348 345 341 337 333 332 332 330 332 326 326 327 327 327 325 325
319 318 318 318 319 320 321 321 322 322 322 322 322 321 321 325 322 319 319 320 324 326 332 337 340 343 343 344 344 346 345 341 334 330 330 329 332 329 327 328 327 328 328 325 328 326 327 324 323
318 318 319 319 319 320 320 321 322 322 322 322 324 324 323 322 322 322 322 322 326 325 329 332 336 337 338 336 335 335 333 331 328 327 326 324 324 325 328 327 329 330 329 328 328 329 327 327 325
319 320 322 320 320 320 319 321 320 325 326 325 326 325 324 322 323 324 325 325 326 327 328 330 332 331 330 330 330 330 331 331 331 331 326 325 324 324 325 329 331 330 331 330 329 328 327 325 326
321 322 321 320 320 319 320 320 321 325 324 325 324 323 324 322 322 321 322 321 321 322 323 325 326 325 324 325 325 326 326 325 326 326 327 327 325 324 325 328 331 332 331 329 330 329 327 324 325
322 323 321 323 322 322 321 322 325 324 324 324 324 325 324 323 322 321 321 319 318 319 319 320 320 319 319 319 320 320 320 320 321 321 322 322 324 325 325 326 327 328 329 330 330 329 328 325 325
322 321 323 322 324 322 322 324 322 326 326 325 325 325 323 321 320 319 318 316 315 315 315 315 316 316 316 316 316 316 316 316 316 316 317 317 318 318 320 322 325 327 329 330 330 330 328 326 325
322 323 323 324 323 325 323 325 326 326 326 326 324 323 322 321 319 318 317 315 315 314 314 314 313 314 314 313 313 313 313 313 314 314 314 315 315 316 316 316 316 318 321 326 328 329 329 327 326
323 323 323 331 326 325 326 327 325 327 325 324 323 322 321 319 318 317 316 315 314 313 312 312 311 311 311 311 311 311 312 312 312 313 313 313 313 313 313 313 314 314 315 316 319 324 328 327 327
Wind_Speed
7 8 7 7 7 7 14 8 14 7 6 3 6 7 4 9 5 3 8 14 22 24 23 27 28 24 21 22 23 28 29 27 26 26 25 22 21 21 21 20 17 14 12 11 9 8 9 10 11
6 7 9 5 8 13 12 11 12 11 4 10 8 6 7 3 3 8 15 14 23 25 24 24 29 26 22 21 24 29 28 27 26 26 23 21 20 20 19 18 16 13 11 9 9 9 10 10 10
8 5 7 6 13 16 14 9 13 5 8 10 5 4 1 3 4 12 11 21 25 23 23 24 30 27 24 22 25 28 28 27 25 24 21 19 19 19 18 16 15 12 10 9 9 10 10 10 10
9 7 5 11 18 17 18 2 3 7 9 2 5 7 4 3 8 10 21 26 25 24 23 24 30 28 25 24 25 26 27 25 24 22 20 19 18 18 18 16 14 12 10 10 11 11 11 10 9
13 5 12 17 23 21 8 15 6 9 8 8 8 13 1 4 8 19 21 25 25 24 23 24 29 28 27 26 25 25 25 24 23 21 19 19 19 18 17 15 14 11 10 9 10 11 10 10 8
9 8 15 20 21 20 12 11 9 11 10 9 7 13 5 7 11 20 20 22 22 23 22 23 28 27 26 26 25 25 24 24 22 20 19 18 18 18 16 14 12 10 9 8 8 9 9 9 8
19 14 21 23 21 20 14 13 14 9 8 2 5 8 6 9 10 16 17 21 22 21 22 22 23 25 25 25 24 24 23 22 21 19 19 18 18 17 15 13 11 8 7 7 8 8 9 9 9
15 16 25 24 21 20 12 8 10 8 2 2 3 1 2 10 12 15 15 20 21 22 21 21 22 22 21 21 24 23 21 20 19 18 18 17 17 16 14 13 11 10 9 9 9 9 9 10 10
13 17 21 27 24 18 12 15 15 4 2 5 5 10 9 8 11 14 15 18 20 21 21 21 22 22 21 20 21 22 20 19 18 16 17 16 13 14 13 12 14 12 11 10 10 10 10 11 11
15 17 26 20 19 14 17 18 21 12 7 7 5 13 8 8 11 12 15 18 21 21 21 21 21 21 21 20 19 20 18 16 16 15 15 14 14 13 13 13 15 14 12 12 11 12 12 12 10
18 22 19 23 15 14 16 18 20 18 15 6 7 8 11 6 7 8 12 16 19 20 20 20 20 21 21 19 19 20 19 18 17 17 16 15 14 13 14 12 11 12 12 11 11 11 11 12 11
19 20 20 19 14 18 23 18 22 21 16 13 7 7 9 7 6 13 9 12 16 17 19 20 21 21 21 19 20 20 20 19 18 18 18 16 15 14 13 13 12 11 11 10 11 11 11 12 13
21 19 19 20 18 21 20 22 21 20 21 13 8 4 5 6 10 8 17 11 11 15 18 20 21 22 22 21 20 20 19 19 18 18 20 19 17 15 15 14 13 12 11 11 11 12 12 13 14
14 20 19 17 22 24 21 21 21 21 17 15 15 13 13 12 11 14 9 15 16 14 17 19 21 22 23 24 21 21 19 19 18 18 18 20 18 16 15 15 14 14 13 13 14 14 15 16 17
18 15 18 21 21 19 26 24 26 21 16 24 21 17 15 17 19 15 15 14 17 19 17 20 21 22 23 23 23 21 20 20 19 19 18 18 19 17 16 15 14 13 12 13 14 15 16 17 17
19 21 20 19 21 24 17 29 28 21 21 18 20 13 15 25 22 23 20 18 14 16 20 20 21 22 24 23 21 20 19 19 20 19 18 19 19 18 14 14 13 12 12 12 14 14 15 16 17
16 17 21 19 22 22 24 26 25 24 24 23 20 22 19 27 21 26 23 18 17 15 17 17 20 21 22 21 20 19 18 19 19 18 18 18 19 17 15 13 12 12 13 13 13 14 14 16 18
18 21 16 18 19 20 28 25 24 10 15 23 24 27 26 32 30 25 22 20 13 15 14 17 18 19 19 18 19 18 19 20 19 19 18 17 17 16 16 14 13 11 12 12 12 12 14 15 19
9 11 15 16 16 22 25 28 25 21 21 20 21 26 27 30 27 24 23 24 16 15 15 16 15 17 18 19 19 19 19 18 19 18 16 15 15 16 15 14 13 13 13 12 11 12 14 16 17
15 16 14 11 13 18 22 24 24 25 23 22 18 21 27 28 25 16 18 23 18 20 22 22 19 15 16 16 16 15 16 16 15 15 15 16 15 15 15 14 12 11 11 10 11 11 13 16 15
17 18 14 11 4 12 17 23 20 21 18 19 19 17 20 28 24 13 19 14 15 19 20 22 18 15 17 13 13 9 10 9 12 13 13 13 14 14 13 13 12 11 12 12 10 11 11 16 16
18 16 17 15 10 13 19 13 19 17 19 18 18 18 13 21 19 9 12 18 18 15 13 14 13 14 13 14 12 13 13 11 11 12 12 12 13 13 14 13 12 12 12 11 11 10 12 13 16
16 13 14 15 16 17 15 11 12 17 13 19 15 12 17 11 10 13 12 16 10 10 12 12 12 13 13 13 11 11 10 8 8 9 10 12 12 13 13 14 15 15 14 13 13 12 13 13 16
16 18 13 16 15 15 18 13 10 14 15 15 12 8 6 8 7 5 4 6 5 7 8 8 11 11 10 10 8 4 3 3 4 6 7 10 12 13 16 17 17 17 16 16 16 16 16 16 16
13 13 9 10 13 14 18 12 6 11 9 7 12 13 11 10 10 10 9 8 7 8 9 9 11 11 9 7 5 4 3 2 3 4 7 10 13 15 16 16 18 19 20 20 20 19 19 19 19
18 16 11 14 13 15 8 8 5 8 10 11 14 14 13 14 12 14 12 13 14 14 13 11 11 11 9 8 7 6 5 3 5 7 9 13 15 17 17 17 18 21 23 23 23 24 24 22 22
13 11 13 9 5 7 12 7 6 9 11 12 13 14 14 14 14 15 15 17 18 17 16 14 13 13 13 11 9 9 8 8 6 8 9 13 15 18 20 21 23 24 26 27 27 27 26 25 24
13 14 9 9 11 13 7 14 7 15 12 11 13 13 14 14 13 13 13 16 15 15 14 14 13 12 10 9 9 8 8 9 10 11 13 15 16 17 19 19 22 24 26 27 28 30 30 27 29
11 12 11 5 8 10 10 8 9 12 11 10 11 12 12 12 11 11 10 13 14 13 13 12 12 10 10 8 8 9 11 12 14 15 17 18 19 20 22 23 25 25 26 27 30 32 33 32 30
3 7 14 8 12 8 10 3 0 9 10 12 12 11 10 10 9 9 9 10 10 10 9 8 8 8 9 11 12 13 15 16 17 18 20 21 23 24 26 27 28 29 30 30 31 33 36 37 37
Wind_Direction
299 306 287 252 247 234 251 229 256 248 192 77 323 276 296 338 287 37 130 145 150 155 159 165 172 175 179 180 179 175 174 171 170 168 167 164 161 160 157 157 155 154 155 156 157 155 149 145 144
270 301 242 259 246 234 236 217 218 236 328 318 295 241 237 210 82 110 139 157 154 154 158 164 172 176 178 179 176 174 173 174 173 171 169 165 164 164 163 162 163 164 166 168 169 166 157 151 151
269 252 263 229 239 241 245 166 245 220 270 293 279 268 333 87 122 150 134 153 153 155 158 165 171 176 177 177 176 176 176 176 176 174 172 170 168 169 168 168 168 172 177 177 175 172 167 162 161
214 202 235 244 235 234 254 239 228 254 255 266 299 264 140 31 139 148 149 153 155 156 162 173 173 177 180 177 180 179 180 181 178 178 177 177 174 174 174 175 175 176 182 183 181 180 179 178 179
216 248 238 227 240 243 217 257 261 269 275 261 295 260 190 107 119 140 150 157 158 159 162 169 175 178 180 182 179 182 184 184 182 183 183 183 180 178 181 183 182 184 188 192 192 192 192 194 197
216 240 235 233 231 236 212 253 255 261 274 269 259 254 139 125 145 152 153 161 161 159 161 168 176 180 180 182 183 181 183 184 187 188 190 187 184 183 187 188 191 193 197 203 206 207 209 214 221
229 214 235 241 238 228 211 249 253 268 265 221 350 249 96 165 144 157 157 162 162 162 163 167 172 180 182 183 184 184 184 186 189 190 190 188 187 187 192 196 200 204 209 213 219 222 225 230 236
229 247 238 239 238 241 215 221 237 240 125 190 29 36 207 122 154 156 161 164 165 167 168 169 172 176 180 185 187 189 188 188 187 186 188 188 190 194 198 201 208 212 215 219 223 228 234 239 243
225 237 234 233 228 242 236 214 201 165 58 83 88 24 335 148 158 161 164 170 171 173 173 175 175 178 180 183 189 191 193 190 187 186 189 188 189 202 210 210 221 225 224 227 231 236 239 245 251
219 229 235 242 244 239 238 225 209 207 160 149 127 21 59 158 172 174 176 177 178 178 179 180 181 181 183 185 187 186 191 188 186 189 192 189 200 206 210 219 232 234 236 239 243 246 248 254 249
220 244 240 247 251 261 255 236 239 228 197 134 79 24 50 351 198 211 190 181 185 184 184 184 185 187 189 187 187 191 193 191 196 195 195 197 206 211 214 220 232 233 249 243 253 253 255 249 251
225 235 243 254 226 236 244 253 238 223 213 154 120 29 355 25 342 303 216 190 189 191 192 191 190 191 193 192 195 198 197 196 199 200 201 200 206 212 215 220 224 225 230 237 240 248 251 252 254
223 240 221 238 237 242 248 244 248 237 231 162 202 216 293 324 346 338 300 268 207 200 199 198 197 196 196 198 201 204 205 202 204 204 207 206 212 217 221 225 228 234 236 240 247 252 255 259 261
216 239 238 228 231 233 235 240 236 240 258 217 233 232 266 299 306 317 310 268 253 220 211 206 204 202 200 202 203 205 207 207 208 211 213 212 216 219 224 230 233 237 241 247 252 256 260 263 265
243 242 230 235 245 251 237 240 229 235 236 245 234 234 271 285 298 292 310 303 266 247 224 212 210 208 206 207 208 209 211 210 212 214 216 218 219 224 225 234 235 235 240 244 250 254 258 261 264
231 226 238 226 224 233 251 243 231 221 244 242 236 228 246 269 283 291 291 298 273 261 233 218 212 210 210 210 210 213 216 214 216 217 216 219 219 219 226 229 234 236 238 244 252 255 259 262 266
214 232 223 242 224 224 216 245 249 228 227 233 236 227 244 252 267 282 291 289 279 269 248 229 216 214 212 213 214 216 217 218 219 219 216 215 218 217 215 224 229 227 234 241 251 258 265 273 273
217 228 233 234 229 223 226 232 240 231 232 241 232 227 213 241 255 278 298 294 280 263 238 230 223 219 213 211 212 217 219 220 219 218 217 214 213 214 216 226 230 226 241 246 247 257 267 270 276
282 247 231 240 240 235 231 237 223 221 219 239 230 235 229 226 239 265 284 290 279 256 246 230 216 213 203 203 207 213 217 218 217 216 213 209 209 213 216 223 228 233 242 249 255 260 264 274 278
246 258 243 263 238 233 230 240 236 229 225 229 236 240 236 231 235 265 281 271 259 257 249 237 227 207 209 208 209 214 213 209 209 210 212 214 214 216 218 224 224 233 244 244 249 253 270 275 278
222 251 246 265 309 204 228 234 233 227 220 220 227 244 236 224 220 235 244 228 258 260 243 229 212 197 199 199 192 194 188 188 193 200 206 211 210 206 207 217 227 227 233 246 238 251 268 282 283
230 220 252 262 255 224 209 235 208 210 213 218 220 231 219 201 216 255 264 268 255 254 234 214 197 190 189 185 194 200 204 204 207 198 193 185 194 204 213 218 226 230 240 244 243 256 262 272 282
241 228 237 255 253 262 217 259 213 181 207 209 218 228 230 228 254 280 273 264 250 216 199 191 184 181 176 176 192 201 224 203 185 185 186 197 208 214 225 229 230 231 233 239 242 249 255 268 271
240 231 245 249 250 240 248 236 179 170 205 165 135 127 141 165 161 176 224 221 175 190 180 164 155 145 145 147 148 160 170 206 214 213 224 228 231 235 237 236 235 236 238 241 242 247 251 255 263
201 201 204 210 223 238 221 219 248 75 87 116 121 111 116 116 116 110 101 87 96 121 136 135 116 103 99 105 104 91 68 355 300 285 265 266 257 252 251 252 250 248 245 243 241 243 248 247 250
203 216 236 207 209 214 164 227 226 98 106 109 102 104 106 102 96 91 89 94 91 88 91 108 109 90 86 84 70 50 20 329 299 291 284 272 270 268 272 269 265 260 256 252 250 247 245 249 246
189 223 258 272 269 273 169 150 132 120 124 123 115 108 100 93 97 97 95 92 84 78 74 72 73 68 56 47 41 33 16 6 337 321 305 288 279 275 273 271 268 265 260 254 249 247 249 245 243
265 212 198 230 237 235 181 176 214 165 150 139 126 114 107 103 95 88 86 82 78 80 72 63 58 54 47 33 18 360 341 328 317 306 293 284 281 282 279 276 273 268 263 257 253 251 249 246 247
198 221 239 275 260 225 228 232 101 153 145 138 120 112 106 100 96 88 80 72 64 58 54 48 39 31 19 358 338 324 314 305 298 290 284 283 283 279 277 275 273 269 267 261 257 255 256 255 250
323 267 227 219 221 248 271 126 71 124 135 139 123 111 100 95 91 84 76 69 61 51 41 31 9 358 347 332 319 313 304 300 294 291 290 286 284 282 279 277 273 271 267 265 261 258 255 253 250